TimeAKDT,TemperatureF,Dew PointF,Humidity,Sea Level PressureIn,VisibilityMPH,Wind Direction,Wind SpeedMPH,Gust SpeedMPH,PrecipitationIn,Events,Conditions,WindDirDegrees,DateUTC
12:10 AM,50.0,48.2,94,30.17,2.0,Calm,Calm,-,0.00,Rain,Light Rain,0,2013-10-25 08:10:00
12:53 AM,50.0,48.9,96,30.16,2.0,North,3.5,-,0.01,,Overcast,10,2013-10-25 08:53:00
1:45 AM,50.0,48.2,94,30.17,8.0,Calm,Calm,-,0.01,,Overcast,0,2013-10-25 09:45:00
1:53 AM,50.0,48.9,96,30.17,10.0,Calm,Calm,-,0.01,,Overcast,0,2013-10-25 09:53:00
2:33 AM,48.2,48.2,100,30.18,9.0,Calm,Calm,-,N/A,,Overcast,0,2013-10-25 10:33:00
2:53 AM,48.9,48.0,97,30.18,10.0,Calm,Calm,-,N/A,,Overcast,0,2013-10-25 10:53:00
3:04 AM,48.2,48.2,100,30.18,10.0,Calm,Calm,-,N/A,,Overcast,0,2013-10-25 11:04:00
3:19 AM,48.2,48.2,100,30.18,10.0,Calm,Calm,-,N/A,,Overcast,0,2013-10-25 11:19:00
3:35 AM,48.2,48.2,100,30.18,4.0,Calm,Calm,-,N/A,,Overcast,0,2013-10-25 11:35:00
3:41 AM,48.2,48.2,100,30.18,7.0,Calm,Calm,-,N/A,,Overcast,0,2013-10-25 11:41:00
3:53 AM,48.9,48.0,97,30.17,10.0,Calm,Calm,-,N/A,,Overcast,0,2013-10-25 11:53:00
4:53 AM,48.9,48.0,97,30.17,10.0,Calm,Calm,-,N/A,,Overcast,0,2013-10-25 12:53:00
5:53 AM,48.9,48.0,97,30.17,7.0,Calm,Calm,-,N/A,,Overcast,0,2013-10-25 13:53:00
6:16 AM,48.2,46.4,93,30.16,10.0,Calm,Calm,-,N/A,,Overcast,0,2013-10-25 14:16:00
6:26 AM,46.4,46.4,100,30.17,8.0,Calm,Calm,-,N/A,,Mostly Cloudy,0,2013-10-25 14:26:00
6:53 AM,46.9,46.0,97,30.17,10.0,Calm,Calm,-,N/A,,Overcast,0,2013-10-25 14:53:00
7:53 AM,46.0,45.0,96,30.19,10.0,Calm,Calm,-,N/A,,Overcast,0,2013-10-25 15:53:00
8:38 AM,48.2,46.4,93,30.18,10.0,Calm,Calm,-,N/A,,Overcast,0,2013-10-25 16:38:00
9:53 AM,48.9,46.9,93,30.20,10.0,Calm,Calm,-,N/A,,Overcast,0,2013-10-25 17:53:00
10:53 AM,50.0,46.9,89,30.20,10.0,Calm,Calm,-,N/A,,Overcast,0,2013-10-25 18:53:00
11:53 AM,50.0,46.0,86,30.20,10.0,Variable,4.6,-,N/A,,Overcast,0,2013-10-25 19:53:00
12:53 PM,50.0,46.0,86,30.21,10.0,South,3.5,-,N/A,,Overcast,180,2013-10-25 20:53:00
1:53 PM,51.1,46.9,86,30.20,10.0,Variable,3.5,-,N/A,,Overcast,0,2013-10-25 21:53:00
2:29 PM,51.8,46.4,82,30.19,10.0,Calm,Calm,-,N/A,,Overcast,0,2013-10-25 22:29:00
2:53 PM,51.1,48.0,89,30.19,10.0,Calm,Calm,-,N/A,,Overcast,0,2013-10-25 22:53:00
3:53 PM,50.0,46.9,89,30.20,10.0,Variable,3.5,-,N/A,,Overcast,0,2013-10-25 23:53:00
4:53 PM,50.0,46.9,89,30.21,10.0,Variable,3.5,-,N/A,,Overcast,0,2013-10-26 00:53:00
5:53 PM,50.0,46.9,89,30.20,10.0,SSE,4.6,-,0.00,,Overcast,160,2013-10-26 01:53:00
6:53 PM,50.0,46.9,89,30.18,10.0,Variable,4.6,-,N/A,,Overcast,0,2013-10-26 02:53:00
7:03 PM,50.0,46.4,87,30.18,10.0,Variable,3.5,-,N/A,,Overcast,0,2013-10-26 03:03:00
7:53 PM,50.0,46.9,89,30.19,10.0,Calm,Calm,-,N/A,,Overcast,0,2013-10-26 03:53:00
8:53 PM,50.0,46.9,89,30.21,10.0,Calm,Calm,-,N/A,,Overcast,0,2013-10-26 04:53:00
9:53 PM,50.0,48.0,93,30.21,10.0,Variable,6.9,-,0.00,,Overcast,0,2013-10-26 05:53:00
11:53 PM,51.1,46.9,86,30.21,10.0,Variable,6.9,-,N/A,,Overcast,0,2013-10-26 07:53:00